THOR ABLESTAR DEB, 336

Orbit data source: Space-Track

THOR ABLESTAR DEB, 336 is space debris in LEO originally from a launch on Thu, 29 Jun 1961 UTC launched from the Air Force Eastern Test Range (AFETR). Debris objects in space refer to the collection of defunct objects orbiting the Earth. Examples of debris include non-operational satellites, rocket bodies, and fragments generated from explosions, collisions, or faulty payload assembly.

Loading next visibility...
Identifier
336, 1961-015DN
Orbit
LEO
Country
Flag of USUS
Related business
Manufacturer
Unknown
Mission
Spacecraft
Bus & Motor
Unknown
Mass
Unknown
Launch date (UTC)
1961-06-29 (65 years ago)
Launch vehicle
Unknown
Launch site
Air Force Eastern Test Range (AFETR)
Object type
Payload
Rocket body
Debris
Shape & HBR
Unknown shape, 0.1 m
Radar Cross Section
Small (<0.1 m²)

Expand to show TLE details & history
Last TLE update: 12 hours ago

TLE from 12 hours ago
0 THOR ABLESTAR DEB
1   336U 61015DN  26130.19015743  .00000080  00000-0  16993-3 0  9996
2   336  67.0302 282.6923 0076092 167.6473   8.5783 13.69207788233990
Epoch: 2026-05-10T04:33Z
TLE epoch observation values (Epoch: 2026-05-10T04:33:49.601Z)
Latitude
3.27475°
Longitude
164.85643°
Altitude
948.595 km
Speed
7.406 km/s
True Right ascension
06h 45m 14s
True Declination
3° 15' 21"
Sunlit
Object was in daylight at epoch
Visualization orbit readout
Latitude
Unknown
Longitude
Unknown
Altitude
Unknown
Speed
Unknown
Apparent Right ascension
Unknown
Apparent Declination
Unknown
Sunlit
N/A
Visualization observer readout
Local Sidereal Time
00:38:29
Azimuth
Unknown
Elevation
Unknown
Doppler factor
Unknown
Orbital elements
Apogee altitude
1,056.949 km
Perigee altitude
944.653 km
Semi-major axis
7,378.938 km
Eccentricity
0.00761
Inclination
67.0302°
RAAN
282.6923°
Arg. of periapsis
167.6473°
True anomaly
8.7096°
Mean anomaly
8.5783°
Eccentric anomaly
8.64382°
Mean motion
3.42415 °/min
Orbital period
105.14 mins
BSTAR
0.00016993
Loading maneuver chart data...
Computing Atmospheric mass density...

Documentation

Showing up to 5 results
|